{"data":{"norad_id":55822,"epoch":"2026-05-25T03:11:07.788192Z","epoch_age_seconds":66656,"freshness":"FRESH","line1":"1 55822U 23029AC  26145.13272903 -.00000192  00000+0 -55265-3 0  9992","line2":"2 55822  87.8931 294.3492 0001758  86.6894 273.4437 13.14501447156401","mean_motion":13.14501447,"eccentricity":0.0001758,"inclination_deg":87.8931,"raan_deg":294.3492,"arg_perigee_deg":86.6894,"mean_anomaly_deg":273.4437,"bstar":-0.00055265,"rev_number":15640,"period_min":109.54723581982,"perigee_km":1204.4623033273,"apogee_km":1207.1288140149,"semimajor_km":7583.9325586711,"source":"CELESTRAK","updated_at":"2026-05-25T13:38:22.695960Z"}}